Content
SEND FEEDBACK

Daily
Averages
Monthly
Summary
United States of America

CAMP QUEZON, GUAM


Home > North America > United States > Guam
Elevation: 269 feet     Latitude: 13 28N     Longitude: 144 48E

WEATHER
 
SELECT A DAY
Number of Records: 209,106;   Date Range: 1/1/95 - 8/12/14
 
SHARE

PRINT THIS DATA

[ ← Previous Day ]
WEATHER ALMANAC - DECEMBER 7, 2013
[ Next Day → ]
[ °C ]   °F
Weather ElementAverageHighLow
Temperature81.1 °F86 °F (11:54 am)77 °F (6:54 am)
Dewpoint76 °F78.8 °F (10:13 am)73 °F (1:54 am)
Humidity84.7 %97 % (1:54 pm)70 % (12:04 pm)
Barometer29.86 in29.92 in (10:01 am)29.81 in (3:54 am)
Wind Speed7.5 mph12.7 mph (10:13 am)
Wind Gust19.6 mph (1:32 pm)
Weather ElementAverage
Visibility9.2 mi
Wind DirectionENE (70 °)

Weather ElementTotal
Precipitation0.44 in
Cooling Degree Days16.5 (Base 65)
Growing Degree Days31.5 (Base 50)
Averaged from 35 records on December 7, 2013
WEATHER CONDITIONS BREAKOUT
WIND DIRECTION BREAKOUT
WEATHER BY HOUR - DECEMBER 7, 2013
[ °C ]   °F
Local TimeTemperatureDewpointHumidityBarometerVisibilityWind DirectionWind SpeedGust SpeedPrecipitationEventsConditions
1:54 AM80.1 °F73.0 °F79 %29.83 in10.0 miENE (70°)9.2 mphClear
2:54 AM79.0 °F73.0 °F82 %29.82 in10.0 miENE (60°)6.9 mphClear
3:54 AM78.1 °F73.0 °F84 %29.81 in10.0 miENE (60°)5.8 mphClear
4:54 AM78.1 °F73.0 °F84 %29.81 in10.0 miENE (60°)5.8 mphClear
5:54 AM78.1 °F73.0 °F84 %29.82 in10.0 miENE (60°)6.9 mphClear
6:54 AM77.0 °F73.0 °F88 %29.85 in10.0 miCalmClear
7:45 AM80.6 °F73.4 °F79 %29.89 in10.0 miNE (50°)5.8 mphMostly Cloudy
7:54 AM81.0 °F73.9 °F79 %29.87 in10.0 miNE (50°)5.8 mphMostly Cloudy
8:47 AM84.2 °F75.2 °F74 %29.91 in10.0 miENE (60°)10.4 mphPartly Cloudy
8:54 AM84.0 °F75.0 °F74 %29.89 in10.0 miNE (50°)11.5 mphScattered Clouds
9:54 AM82.9 °F75.9 °F79 %29.90 in10.0 miENE (60°)10.4 mph0.00 inMostly Cloudy
10:01 AM82.4 °F75.2 °F79 %29.92 in10.0 miNE (50°)10.4 mphScattered Clouds
10:13 AM82.4 °F78.8 °F89 %29.92 in9.0 miENE (70°)12.7 mph0.00 inRainLight Rain
10:23 AM82.4 °F77.0 °F84 %29.92 in10.0 miENE (60°)8.1 mph0.00 inMostly Cloudy
10:54 AM84.9 °F77.0 °F77 %29.89 in10.0 miEast (80°)8.1 mph0.00 inMostly Cloudy
11:54 AM86.0 °F77.0 °F74 %29.86 in10.0 miEast (80°)11.5 mphScattered Clouds
12:04 PM86.0 °F75.2 °F70 %29.88 in10.0 miEast (80°)10.4 mphMostly Cloudy
12:29 PM84.2 °F75.2 °F74 %29.88 in10.0 miEast (90°)10.4 mphMostly Cloudy
12:54 PM82.9 °F77.0 °F82 %29.85 in10.0 miENE (70°)8.1 mph0.00 inThunderstormThunderstorm
1:18 PM80.6 °F77.0 °F89 %29.85 in10.0 miSSE (150°)3.5 mphThunderstormThunderstorm
1:27 PM80.6 °F78.8 °F94 %29.85 in2.5 miSouth (190°)5.8 mph0.01 inRainHeavy Rain
1:32 PM80.6 °F78.8 °F94 %29.86 in1.5 miSE (140°)8.1 mph19.6 mph0.05 inRainHeavy Rain
1:44 PM78.8 °F77.0 °F94 %29.86 in2.0 miSSE (150°)3.5 mph0.14 inRainHeavy Rain
1:54 PM79.0 °F78.1 °F97 %29.84 in10.0 miCalm0.18 inOvercast
2:15 PM80.6 °F78.8 °F94 %29.85 in10.0 miCalmMostly Cloudy
2:54 PM81.0 °F78.1 °F91 %29.83 in7.0 miENE (60°)8.1 mph0.01 inRainRain
3:54 PM80.1 °F77.0 °F90 %29.83 in10.0 miNE (40°)5.8 mph0.05 inOvercast
4:54 PM80.1 °F77.0 °F90 %29.84 in10.0 miNE (50°)6.9 mph0.00 inScattered Clouds
5:54 PM80.1 °F78.1 °F94 %29.85 in10.0 miNE (50°)8.1 mph0.00 inMostly Cloudy
6:54 PM80.1 °F75.9 °F87 %29.86 in10.0 miENE (70°)10.4 mphClear
7:54 PM81.0 °F75.9 °F85 %29.86 in10.0 miENE (70°)10.4 mphClear
8:54 PM81.0 °F77.0 °F88 %29.86 in10.0 miENE (70°)10.4 mphOvercast
9:54 PM80.1 °F77.0 °F90 %29.86 in10.0 miEast (80°)10.4 mphClear
10:54 PM80.1 °F75.9 °F87 %29.86 in10.0 miEast (90°)6.9 mphMostly Cloudy
11:54 PM80.1 °F75.9 °F87 %29.86 in10.0 miEast (80°)6.9 mphClear
Hourly data recorded from PGUM, located miles away from Camp Quezon, Guam







STORIES FROM OUR PARTNERS